Regional & State Weather Roundups


494 
ASUS43 KMKX 161320
RWRWI 
WISCONSIN REGIONAL WEATHER ROUNDUP
NATIONAL WEATHER SERVICE MILWAUKEE/SULLIVAN WI
700 AM CST SAT FEB 16 2019
NOTE: "FAIR" INDICATES FEW OR NO CLOUDS BELOW 12,000 FEET WITH NO
SIGNIFICANT WEATHER AND/OR OBSTRUCTIONS TO VISIBILITY.
WIZ001-002-006>008-014>016-023>028-161400-
NORTHWEST WISCONSIN
  
CITY           SKY/WX    TMP DP  RH WIND       PRES   REMARKS
SUPERIOR ARPT  MOCLDY    -7 -11  83 CALM      30.18R                  
ASHLAND        LGT SNOW   5   3  91 S3        30.16R FOG              
HAYWARD        CLOUDY    -5 -10  79 CALM      30.12S HAZE             
SIREN          FAIR     -12 -17  79 CALM      30.17R                  
CUMBERLAND     FAIR      -8 -13  77 CALM      30.13R                  
RICE LAKE      FAIR     -14 -18  79 CALM      30.16R                  
CHETEK         FAIR     -12 -16  83 MISG      30.17R                  
LADYSMITH      LGT SNOW  -6 -10  81 CALM      30.15R                  
EAU CLAIRE     FAIR     -10 -15  78 CALM      30.16R                  
MENOMONIE      FAIR      -9 -14  80 N3        30.16F                  
NEW RICHMOND   FAIR     -12 -18  75 CALM      30.14F                  
OSCEOLA        FAIR      -9 -13  83 CALM      30.19S                  
$$
 
WIZ003>005-009-010-017-018-161400-
NORTH CENTRAL WISCONSIN
  
CITY           SKY/WX    TMP DP  RH WIND       PRES   REMARKS
MANITOWISH WTR NOT AVBL                                               
ARBOR VITAE    LGT SNOW   0  -4  84 CALM      30.07R                  
WOODRUFF       LGT SNOW   0  -4  84 CALM      30.07R                  
RHINELANDER    FAIR      -7 -13  75 CALM      30.05F                  
EAGLE RIVER    LGT SNOW   1  -3  83 CALM      30.05F                  
LAND O LAKES   FLURRIES   9   6  87 NE3       30.07F                  
PHILLIPS       FLURRIES  -5  -8  86 CALM      30.09R                  
TOMAHAWK       FAIR     -17 -23  76 CALM      30.11R                  
MEDFORD        FAIR      -9 -13  82 CALM      30.08R                  
MERRILL        FAIR     -16 -21  78 CALM      30.11R                  
$$
 
WIZ029-030-035-036-043>047-161400-
CENTRAL WISCONSIN
  
CITY           SKY/WX    TMP DP  RH WIND       PRES   REMARKS
WAUSAU         FAIR      -8 -11  86 NW3       30.09F                  
MOSINEE        PTCLDY     0  -2  92 N6        30.10F WCI -12          
MARSHFIELD     FAIR      -6  -9  86 N8        30.09R WCI -21          
STEVENS POINT  FAIR     -12 -16  82 CALM      30.12R                  
WAUPACA        FAIR      -3  -8  81 CALM      30.14R                  
WAUTOMA        FAIR     -11 -15  82 CALM      30.14R                  
WISC RAPIDS    FAIR      -7 -12  79 CALM      30.13R                  
CAMP DOUGLAS   FAIR     -13 -17  80 W3        30.14R                  
$$
 
WIZ011>013-019>022-031-037>040-048>050-161400-
NORTHEAST WISCONSIN
  
CITY           SKY/WX    TMP DP  RH WIND       PRES   REMARKS
ANTIGO         FAIR      -8 -11  84 NE3       30.07S                  
SHAWANO        FAIR      -6 -12  78 CALM      30.13F                  
OCONTO         CLOUDY     0  -3  87 CALM      30.16S                  
STURGEON BAY   FLURRIES  10   7  87 N5        30.15S WCI   2          
GREEN BAY      FAIR       1  -4  79 SE3       30.14S                  
MANITOWOC      CLOUDY    12   7  80 NW7       30.14S WCI   1          
APPLETON       PTCLDY     3  -2  78 N3        30.10F                  
CLINTONVILLE   FAIR      -6 -11  79 CALM      30.13F                  
OSHKOSH        FAIR      -6  -7  95 CALM      30.13S                  
$$
 
WIZ032>034-041-042-053>061-161400-
SOUTHWEST WISCONSIN
  
CITY           SKY/WX    TMP DP  RH WIND       PRES   REMARKS
LA CROSSE      FAIR      -9 -14  78 NW3       30.18F                  
SPARTA         FAIR     -15 -19  81 CALM      30.17R                  
VIROQUA        FAIR       2  -1  89 NE3       30.09S                  
BOSCOBEL       FAIR      -6 -11  79 CALM      30.16S                  
PRAIRIE DU CHI FAIR      -4  -9  80 CALM      30.17R                  
PLATTEVILLE    FAIR       5   2  86 N9        30.10F WCI  -9          
$$
WIZ056-057-062-063-064-067-068-161400-
SOUTH CENTRAL WISCONSIN
  
CITY           SKY/WX    TMP DP  RH WIND       PRES   REMARKS
REEDSBURG      FAIR      -5  -8  85 NW3       30.14R                  
BARABOO/DELLS  FAIR      -4  -8  84 CALM      30.14R                  
LONE ROCK      FAIR      -7 -10  87 CALM      30.16R                  
MINERAL POINT  FAIR       7   3  85 N6        30.08R WCI  -3          
MADISON        MOCLDY    -2  -5  87 CALM      30.12R                  
MIDDLETON      FAIR      -3  -6  88 CALM      30.13R                  
WATERTOWN      CLOUDY     4   1  86 CALM      30.12R                  
MONROE         FAIR       7   1  78 MISG      30.10R                  
JANESVILLE     PTCLDY    10   3  72 N6        30.12R WCI   1          
$$
 
WIZ051-052-058>065-066-070>072-161400-
SOUTHEAST WISCONSIN
  
CITY           SKY/WX    TMP DP  RH WIND       PRES   REMARKS
MILWAUKEE      FAIR      12   5  73 NW6       30.11S WCI   3          
WAUKESHA       PTCLDY     3   0  85 NW3       30.11S                  
MILWAUKEE/TIMM CLOUDY    12   5  73 CALM      30.13R                  
RACINE         MOCLDY    11   5  77 NW6       30.13R WCI   1          
KENOSHA        FAIR      11   5  77 NW5       30.10S WCI   3          
FOND DU LAC    CLOUDY    -6 -11  79 CALM      30.13S                  
SHEBOYGAN      CLOUDY    12   6  77 NW8       30.12R WCI   0          
WEST BEND      CLOUDY     7   5  92 W3        30.11S                  
JUNEAU         CLOUDY     6   2  85 N5        30.12S WCI  -3          
$$
LSZ147-162-161400-
LAKE SUPERIOR
  
STATION/POSITION TIME  TEMP    WIND        PRES    WAVE
                       AIR SEA DIR/SP/G            HT/PER
                 (UTC) (F)     (DEG/KT/KT) (MB)    (FT/S)
DEVILS ISLAND    1300   12     110/  6/  7 1022.9F
SAXON HARBOR     1240    7     170/  1/  4 1021.3R
$$
 
LMZ867-665-643>646-161400-
LAKE MICHIGAN
  
STATION/POSITION TIME  TEMP    WIND        PRES    WAVE
                       AIR SEA DIR/SP/G            HT/PER
                 (UTC) (F)     (DEG/KT/KT) (MB)    (FT/S)
CHAMBERS ISLAND  1240   10     250/  4/  8 1020.3R
NORTHPORT PIER   1240   15     290/  4/  5 1020.7R
KEWAUNEE LAKESHO 1254   12     320/  5/  8 1019.5F
SHEBOYGAN LAKESH 1300   15     320/  9/ 10 1021.2R
PORT WASHINGTON  1230   14     310/  7/  9 1021.3S
MILWAUKEE LAKESH 1300   14     320/  6/  9   N/A
KENOSHA   LAKESH 1300   12     320/  6/  9 1019.6
$$
TC  - TEMPERATURE IN CELSIUS
VSB - VISIBILITY IN STATUTE MILES
WCI - WIND CHILL INDEX
HX  - HEAT INDEX